Location: Unspecified
(0.0000°N, 0.0000°E)
Time: 17:02:38
(UTC+00:00)

ARIANE 2 DEB - Pass Details

Date: 13 March 2026
Orbit: 699 x 35696 km, 8.1° (Epoch: 18 April)

Event Time Altitude Azimuth Distance (km) Brightness Sun altitude
Rises 13:55:07 0° 280° (W) 4,684 ? 63.4°
Reaches altitude 10° 13:56:57 10° 283° (WNW) 4,209 ? 63.0°
Maximum altitude 22:03:07 78° 117° (ESE) 26,059 ? -58.3°
Enters shadow 22:45:38 75° 120° (ESE) 20,279 ? -68.9°
Exits shadow 23:44:21 41° 106° (ESE) 10,006 ? -83.2°
Drops below altitude 10° 23:59:05 10° 101° (E) 8,439 ? -86.3°
Sets 00:02:42 0° 100° (E) 8,410 ? -86.9°
